TimeCDT,TemperatureF,Dew PointF,Humidity,Sea Level PressureIn,VisibilityMPH,Wind Direction,Wind SpeedMPH,Gust SpeedMPH,PrecipitationIn,Events,Conditions,WindDirDegrees,DateUTC
12:53 AM,77.0,70.0,79,30.04,10.0,South,5.8,-,N/A,,Clear,170,2013-06-21 05:53:00
1:53 AM,77.0,70.0,79,30.04,10.0,SE,3.5,-,N/A,,Clear,130,2013-06-21 06:53:00
2:53 AM,75.9,70.0,82,30.03,10.0,SSE,6.9,-,N/A,,Clear,160,2013-06-21 07:53:00
3:53 AM,75.0,70.0,84,30.03,10.0,South,5.8,-,N/A,,Clear,170,2013-06-21 08:53:00
4:53 AM,75.0,70.0,84,30.02,10.0,South,6.9,-,N/A,,Clear,180,2013-06-21 09:53:00
5:53 AM,73.9,70.0,87,30.03,10.0,South,3.5,-,N/A,,Clear,180,2013-06-21 10:53:00
6:53 AM,73.9,70.0,87,30.04,10.0,Calm,Calm,-,N/A,,Clear,0,2013-06-21 11:53:00
7:53 AM,78.1,71.1,79,30.06,10.0,South,8.1,-,N/A,,Clear,190,2013-06-21 12:53:00
8:53 AM,80.1,71.1,74,30.06,10.0,South,15.0,20.7,N/A,,Clear,180,2013-06-21 13:53:00
9:53 AM,82.9,71.1,67,30.06,10.0,South,15.0,-,N/A,,Clear,180,2013-06-21 14:53:00
10:53 AM,84.9,71.1,63,30.07,10.0,South,13.8,-,N/A,,Clear,170,2013-06-21 15:53:00
11:53 AM,86.0,71.1,61,30.07,10.0,SSW,13.8,-,N/A,,Partly Cloudy,210,2013-06-21 16:53:00
12:53 PM,87.1,72.0,61,30.06,10.0,South,9.2,-,N/A,,Clear,190,2013-06-21 17:53:00
1:53 PM,88.0,71.1,57,30.05,10.0,SSW,12.7,20.7,N/A,,Clear,200,2013-06-21 18:53:00
2:53 PM,90.0,71.1,54,30.04,10.0,South,13.8,-,N/A,,Partly Cloudy,180,2013-06-21 19:53:00
3:53 PM,89.1,70.0,53,30.02,10.0,SSE,10.4,-,N/A,,Partly Cloudy,150,2013-06-21 20:53:00
4:53 PM,89.1,69.1,52,30.01,10.0,South,12.7,-,N/A,,Clear,180,2013-06-21 21:53:00
5:53 PM,88.0,69.1,53,30.00,10.0,South,12.7,-,N/A,,Clear,170,2013-06-21 22:53:00
6:53 PM,86.0,69.1,57,29.99,10.0,SSE,6.9,-,N/A,,Clear,160,2013-06-21 23:53:00
7:53 PM,82.9,70.0,65,29.99,10.0,South,3.5,-,N/A,,Clear,170,2013-06-22 00:53:00
8:53 PM,79.0,70.0,74,29.99,10.0,South,3.5,-,N/A,,Clear,170,2013-06-22 01:53:00
9:53 PM,78.1,69.1,74,30.00,10.0,Calm,Calm,-,N/A,,Clear,0,2013-06-22 02:53:00
10:53 PM,75.9,69.1,79,30.01,10.0,South,4.6,-,N/A,,Clear,180,2013-06-22 03:53:00
11:53 PM,77.0,69.1,76,30.01,10.0,Calm,Calm,-,N/A,,Clear,0,2013-06-22 04:53:00